Regional Weather Roundup
Issued by NWS Pendleton, OR

Home | Current Version | Previous Version | Text Only | Print | Product List | Glossary On
Versions: 1 2 3 4 5 6 7 8 9 10 11 12 13 14 15 16 17 18 19 20 21 22 23 24 25 26 27 28 29 30 31 32 33 34 35 36 37 38 39 40 41 42 43 44 45 46 47 48 49 50
000
ASUS46 KPDT 221410
RWRPDT
PENDLETON REGIONAL WEATHER ROUNDUP
NATIONAL WEATHER SERVICE PENDLETON OREGON
700 AM PDT WED OCT 22 2014

NOTE: FAIR INDICATES FEW OR NO CLOUDS BELOW 12,000 FEET WITH NO
SIGNIFICANT WEATHER AND/OR OBSTRUCTIONS TO VISIBILITY.

# INDICATES UNOFFICIAL STATION AND DATA

WAZ520-221510-
EAST SLOPES OF WASHINGTON CASCADES

CITY            SKY/WX      TMP DP  RH  WIND    PRES   REMARKS
#BUMPING DAM    N/A         42  N/A N/A S2      N/A
#CLE ELUM HS    N/A         48  42  80  CALM    29.75F
#CLE ELUM 2NW   N/A         47  42  83  E2      N/A
#CLE ELUM LAKE  N/A         N/A N/A N/A S5      29.74F
#CLIFFDEL 2NW   N/A         43  42  96  CALM    N/A
#EASTON DOT     N/A         45  40  82  CALM    N/A
#GLENWOOD       N/A         46  45  96  CALM    29.83R
#MANASTASH CYN  N/A         44  41  89  CALM    29.78F
#NELSON         N/A         43  42  96  CALM    29.81F
#NELSON 3SW     N/A         42  41  96  CALM    29.98F
#NILE           N/A         48  43  83  NE1     29.07S
#PEOH POINT     N/A         41  39  93  S13     N/A    WCI 34
#RONALD 2NW     N/A         45  43  93  E2      29.66F
#SNOWDEN        N/A         46  42  86  CALM    N/A
#TEANAWAY 4NE   N/A         51  44  77  CALM    N/A
#TROUT LAKE HS  N/A         48  48  100 W1      N/A
#TROUT LAKE 1NE N/A         46  45  96  CALM    29.84R
$$

WAZ521-221510-
SIMCOE HIGHLANDS

CITY            SKY/WX      TMP DP  RH  WIND    PRES   REMARKS
#BICKLETON HS   N/A         46  38  73  N2      29.94S
#SATUS PASS DOT N/A         44  41  89  CALM    N/A
#CENTERVILLE 4W N/A         52  44  74  SW3     29.59R
#CENTERVILLE 1SWN/A         51  42  71  CALM    29.80S
#GOLDENDALE     N/A         49  46  89  SE1     N/A
#GOLDENDALE 1NE N/A         49  46  89  NW5     N/A
#GOLDENDALE 1S  N/A         48  45  89  CALM    29.82R
#GOLDENDALE 5WNWN/A         50  45  83  CALM    29.82R
#GOODNOE HILLS  N/A         50  46  86  NE2     29.78R
#LYLE 6NE       N/A         47  45  93  CALM    29.80R
$$

WAZ026-221510-
KITTITAS VALLEY

CITY            SKY/WX      TMP DP  RH  WIND    PRES   REMARKS
ELLENSBURG AP   CLOUDY      53  42  66  S6      29.81R
#ELLENSBURG CWU N/A         51  43  74  E3      29.76R
#ELLENSBURG 3NE N/A         50  43  77  CALM    29.82S
#ELLENSBURG     N/A         55  47  74  CALM    N/A
#KITTITAS 3S    N/A         49  44  83  CALM    29.79S
#THORP 6N       N/A         47  42  83  E8      29.80S
$$

WAZ027-221510-
YAKIMA VALLEY

CITY            SKY/WX      TMP DP  RH  WIND    PRES   REMARKS
SUNNYSIDE AP    CLOUDY      52  43  71  E6      29.83
YAKIMA AIRPORT  CLOUDY      54  43  66  CALM    29.83R
#COWICHE 1N     N/A         48  43  83  SE3     29.97S
#DONALD 2NE     N/A         51  43  74  CALM    30.15R
#GRANDVIEW      N/A         54  42  64  CALM    29.84S
#MABTON         N/A         56  45  66  E2      29.81F
#MOXEE 2E       N/A         55  34  45  S9      29.79S
#NACHES 2SW     N/A         48  45  89  CALM    29.82F
#TERRACE HTS    N/A         49  44  83  CALM    29.78S
#TOPPENISH      N/A         50  44  80  CALM    29.74R
#WAPATO 4NE     N/A         51  43  74  CALM    30.15R
#WEST VALLEY    N/A         49  44  83  CALM    29.81R
#W YAKIMA       N/A         50  44  80  CALM    29.82
#WHITE SWAN 5E  N/A         45  43  93  CALM    29.83R
#WILEY CITY 3W  N/A         46  32  58  CALM    29.96S
$$

WAZ028-221510-
LOWER COLUMBIA BASIN...WASHINGTON

CITY            SKY/WX      TMP DP  RH  WIND    PRES   REMARKS
PASCO           CLOUDY      55  44  66  E9      29.84F
PROSSER AWOS    N/A         55  43  64  NE7     29.86S
RICHLAND AWOS   CLOUDY      52  46  80  E6      29.83F
#BASIN CITY 5SW N/A         52  46  80  CALM    29.83F
#CONNELL 5N     N/A         50  40  68  CALM    29.85F
#CONNELL 5NW    N/A         48  41  77  CALM    29.81F
#ELTOPIA        N/A         52  45  77  CALM    29.80
#ELTOPIA 6NW    N/A         51  44  77  S2      28.82S
#KENNEWICK 3S   N/A         57  43  59  SE2     29.84F
#PASCO-BROADMOORN/A         52  47  83  E1      29.74F
#PATERSON       N/A         49  45  86  CALM    29.83F
#PROSSER DOT    N/A         55  42  61  E9      N/A
#PROSSER        N/A         52  41  66  CALM    29.82F
#SAGEMOOR 2W    N/A         51  44  77  CALM    29.69F
#TOUCHET 2S     N/A         59  42  53  S8      29.83F
#WEST PASCO     N/A         52  45  77  CALM    29.83F
$$

WAZ029-221510-
FOOTHILLS OF THE BLUES...WASHINGTON

CITY            SKY/WX      TMP DP  RH  WIND    PRES   REMARKS
WALLA WALLA AP  CLOUDY      63  35  35  S15     29.86F
#DELANEY DOT    N/A         40  36  85  SE1     N/A
#LOWDEN 2SE     N/A         61  40  46  S10     29.81F
#PLEASANT VIEW 1N/A         53  37  54  S3      29.91S
#PRESCOTT       N/A         44  42  93  CALM    29.86F
#SUDBURY        N/A         49  N/A N/A CALM    N/A
#WHITMAN COLLEGEN/A         63  38  39  S7      29.89F
#WAITSBURG 8N   N/A         56  25  30  S2      29.85S
#WALLA WALLA 5E N/A         63  36  36  CALM    N/A
#WALLA WALLA U  N/A         63  40  43  S2      29.85F
#WHITMAN MISSIONN/A         60  42  51  SE2     29.86F
$$

WAZ030-221510-
BLUE MOUNTAINS...WASHINGTON

CITY            SKY/WX      TMP DP  RH  WIND    PRES   REMARKS
$$

ORZ009-041-WAZ024-221510-
COLUMBIA RIVER GORGE

CITY            SKY/WX      TMP DP  RH  WIND    PRES   REMARKS
HOOD RIVER AP   LGT RAIN    50  48  93  CALM    29.85S
THE DALLES AP   CLOUDY      53  48  83  N7      29.84R
#ARLINGTON AIRPON/A         49  44  83  CALM    29.99R
#ARLINGTON HS   N/A         50  46  86  S2      29.77R
#CELILO DOT     N/A         55  45  69  NE1     N/A
#LYLE           N/A         53  50  89  CALM    29.85R
#MARYHILL       N/A         51  46  83  CALM    N/A
#MARYHILL 2W    N/A         53  49  86  CALM    N/A
#MOSIER 1S      N/A         50  47  89  CALM    N/A
#MURDOCK        N/A         54  51  90  W5      29.85S
#RUFUS DOT      N/A         N/A N/A N/A SE3     N/A

$$

ORZ510-221510-
NORTH CENTRAL OREGON

CITY            SKY/WX      TMP DP  RH  WIND    PRES   REMARKS
#CHENOWITH 1W   N/A         48  43  83  NE5     N/A
#COW CYN RST AREN/A         52  39  61  S12G24  N/A
#DUFUR 9E       N/A         53  41  64  S23G38  29.85S
#GRASS VALLEY   N/A         53  42  66  SE3     N/A
#GRASS VALLEY 1SN/A         53  42  66  SW12    29.85R
#KENT DOT       N/A         51  34  52  SE8     N/A
#MAUPIN SCHOOL  N/A         47  43  86  CALM    28.73S
#MORO SCHOOL    N/A         50  46  86  CALM    29.86S
#SHANIKO 5WSW   N/A         50  32  50  S21     N/A
#SHANIKO 4NW    N/A         49  38  66  S20G39  29.85S WCI 42
#TYGH VALLEY 2NEN/A         47  45  93  CALM    29.83S
#WAPANITIA AIRPON/A         54  42  64  W3      29.85S
#WASCO DOT      N/A         50  45  83  CALM    N/A
#WASCO 5NE      N/A         47  44  89  CALM    29.83S
$$

ORZ511-221510-
CENTRAL OREGON

CITY            SKY/WX      TMP DP  RH  WIND    PRES   REMARKS
BEND AIRPORT    CLOUDY      50  37  61  S5      29.94S
MADRAS AIRPORT  CLOUDY      54  39  57  S21G24  29.90S
PRINEVILLE AP   CLOUDY      50  37  61  SE13    29.94R
REDMOND AIRPORT CLOUDY      51  37  59  S13     29.91F
#BEND 6E        N/A         52  37  56  CALM    29.87R
#BEND 1SW       N/A         46  39  76  SW1     N/A
#BEND-KIM LN    N/A         50  41  71  S7      29.90S
#CROOKED RVR RANN/A         53  41  64  SW2     29.87S
#CULVER         N/A         54  40  59  SE10    29.85S
#LAKE BILLY CHINN/A         53  23  31  SE6     29.95R
#POWELL BUTTE 3EN/A         49  37  63  S6      N/A
#POWELL BUTTE   N/A         51  39  63  S5      29.57S
#PRINEVILLE 3N  N/A         51  40  66  E10     29.88S
#WARM SPRINGS   N/A         58  43  57  E3      29.85R


ORZ509-221510-
EAST SLOPES OF OREGON CASCADES

CITY            SKY/WX      TMP DP  RH  WIND    PRES   REMARKS
#BLUE BOX PASS  N/A         45  -5  12  CALM    N/A
#CAMP SHERMAN   N/A         50  43  77  CALM    29.85S
#LA PINE DOT    N/A         44  35  70  SE3     N/A
#LA PINE 4NW    N/A         43  37  79  CALM    30.00F
#LAVA BUTTE DOT N/A         44  34  68  SE2     N/A
#SISTERS AIRPOR N/A         44  43  96  CALM    29.91S
#SISTERS ODOT   N/A         44  N/A N/A NW1     N/A
#SISTERS 3N     N/A         44  39  82  CALM    29.92S
#SUNRIVER       N/A         44  39  82  S2      29.83S
#SUNRIVER AP    N/A         44  39  82  SW8     29.91S
#SUTTLE LK DOT  N/A         42  42  100 SW25G58 N/A    WCI 32
#TUMALO 3W      N/A         48  39  71  S12     29.78S WCI 43
#WANOGA BUTTE D N/A         38  38  100 W15     N/A    WCI 29

$$

ORZ044-221510-
LOWER COLUMBIA BASIN...OREGON

CITY            SKY/WX      TMP DP  RH  WIND    PRES   REMARKS
HERMISTON       MOCLDY      49  43  80  E3      29.84F
#BOARDMAN SCHOOLN/A         65  45  48  W3      29.85S
#BOARDMAN 3W    N/A         48  47  96  SW2     29.56S
#BOARDMAN 8SW   N/A         49  46  89  CALM    29.84S
#ECHO 8SW       N/A         50  41  71  N5      29.80F
#IONE SCHOOL    N/A         60  41  49  NW3     29.83F
#IRRIGON 4NW    N/A         46  45  96  SE2     N/A
#UMATILLA SCHOOLN/A         47  47  100 CALM    29.87F
#UMATILLA       N/A         51  42  71  CALM    29.81F
$$

ORZ507-221510-
NORTHERN FOOTHILLS OF THE BLUES

CITY            SKY/WX      TMP DP  RH  WIND    PRES   REMARKS
PENDLETON AIRPT CLOUDY      57  37  47  SE8     29.87S
#ADAMS 3WNW     N/A         56  38  51  S2      29.87F
#ATHENA         N/A         57  36  45  S2      29.88F
#CAYUSE         N/A         58  37  45  SE22G40 29.84S
#HELIX SCHOOL   N/A         51  40  66  S7      29.87F
#HELIX 3N       N/A         53  38  57  SE14    29.85F
#HOLDMAN 5SE    N/A         57  42  57  S2      29.87F
#HOLDMAN 6E     N/A         54  38  55  NW5     29.68F
#M-F FERNDALE   N/A         62  35  36  SE7     29.85F
#M-F GROVE ELEM N/A         61  32  33  SE1     29.85S
#PENDLETON DNTN N/A         47  40  76  CALM    28.67S
#PDT AQUATIC CTRN/A         56  46  69  E3      29.85S
#PDT SUNRIDGE   N/A         55  40  57  SE1     29.88F
#PENDLETON 7NW  N/A         58  41  53  S12G26  27.24F
#PILOT ROCK     N/A         60  32  35  SE13G24 29.89S
#TUTUILLA       N/A         61  37  41  S6      29.87F
#UMAPINE 2E     N/A         61  41  48  S7      29.82F
#WESTON SCHOOL  N/A         57  30  35  SW7G26  29.85F

$$

ORZ508-221510-
SOUTHERN FOOTHILLS OF THE BLUES

CITY            SKY/WX      TMP DP  RH  WIND    PRES   REMARKS
LEXINGTON       CLOUDY      61  37  41  SE17    29.87S
#AJAX           N/A         55  35  47  S10     29.79S
#CONDON SCHOOL  N/A         51  40  66  CALM    29.84S
#CONDON 5W      N/A         49  38  66  S15G24  29.83S WCI 43
#FOSSIL SCHOOL  N/A         52  39  61  E3      29.87F
#HEPPNER EOC    N/A         57  37  47  SE8     29.80S
#HEPPNER 4NE    N/A         53  38  57  SE9     29.85F
#LEXINGTON 2SE  N/A         60  39  46  SE15    29.83S
#MIKKALO        N/A         55  40  57  S3      29.83F
#OLEX 4N        N/A         47  42  83  CALM    29.83S
#RUGGS 5NE      N/A         53  35  50  NE7     30.04S
#RUGGS 2SW      N/A         53  37  54  SW12    29.88R

$$

ORZ502-503-221510-
BLUE MOUNTAINS

CITY            SKY/WX      TMP DP  RH  WIND    PRES   REMARKS
MEACHAM         CLOUDY      44  35  70  CALM    29.95F
#BATTLE MTN DOT N/A         45  36  70  SE13    N/A    WCI 39
#HARDMAN 10S    N/A         43  35  73  SE2     29.99S
#HEPPNER 15SE   N/A         46  36  68  E3      29.81F
#LADD CYN SMT   N/A         45  31  58  SE16    N/A    WCI 38
#LADD CREEK ODOTN/A         48  35  60  S9      N/A
#N POWDER DOT   N/A         45  36  70  SE12    N/A    WCI 39
#PIKES PEAK     N/A         54  33  45  S35G43  27.99S
#TROY SCHOOL    N/A         36  33  89  CALM    29.88S
#UKIAH          N/A         36  35  96  CALM    30.01F
#WESTON 4E      N/A         50  34  54  SE9     29.85S
$$

ORZ505-221510-
JOHN DAY BASIN

CITY            SKY/WX      TMP DP  RH  WIND    PRES   REMARKS
JOHN DAY        CLOUDY      45  38  76  NE6     30.01S
#JOHN DAY KJDY  N/A         43  37  79  CALM    30.06F
#DAYVILLE SCHOOLN/A         51  37  59  E3      29.95F
#MT. VERNON 5SE N/A         47  34  60  E6      29.96S
#WINLOCK        N/A         48  35  60  SW2     30.02S
$$

ORZ506-221510-
OCHOCO AND JOHN DAY HIGHLANDS

CITY            SKY/WX      TMP DP  RH  WIND    PRES   REMARKS
#BUCK CREEK DOT N/A         40  39  96  CALM    N/A
#HORSE RIDGE DO N/A         46  36  68  SE9     N/A
#KEYES SMT DOT  N/A         46  -55  1  SE8     N/A
#PAULINA SCHOOL N/A         40  37  89  CALM    30.01S
#PINE MTN OBS   N/A         36  34  92  SE22G35 N/A    WCI 25
#PRAIRIE CITY   N/A         38  34  85  CALM    30.13F
#SENECA         N/A         38  N/A N/A CALM    N/A
#SENECA 9NW     N/A         31  30  96  CALM    30.08F
$$

ORZ049-221510-
GRANDE RONDE VALLEY

CITY            SKY/WX      TMP DP  RH  WIND    PRES   REMARKS
LA GRANDE       MOCLDY      52  28  39  S16G25  29.98S
#COVE           N/A         44  38  79  CALM    29.90R
#COVE SCHOOL    N/A         43  36  76  CALM    29.96S
#COVE 6NW       N/A         34  32  92  CALM    30.06R
#ELGIN 3N       N/A         33  30  89  CALM    29.72F
#ELGIN 1E       N/A         32  28  85  CALM    N/A
#IMBLER SCHOOL  N/A         63  35  35  SW3     29.84S
#ISLAND CITY 4N N/A         57  53  86  N7      29.75F
#LADD CYN DOT   N/A         N/A N/A N/A SE2     N/A
#UNION 1S       N/A         48  35  60  S8      29.90S
$$

ORZ050-221510-
WALLOWA COUNTY

CITY            SKY/WX      TMP DP  RH  WIND    PRES   REMARKS
#ENTERPRISE HS  N/A         32  29  89  CALM    30.01S
#IMNAHA SCHOOL  N/A         38  35  89  CALM    29.96F
#IMNAHA 10S     N/A         52  35  52  SW10    29.99S
#JOSEPH 3N      N/A         33  30  89  W1      30.00S
#JOSEPH 3W      N/A         45  30  55  SW1     29.82S
#LOSTINE        N/A         28  26  92  CALM    29.83S
#MT HOWARD 8000 N/A         33  25  72  S13G26  29.98F WCI 24
#PROMISE 1S     N/A         36  32  85  CALM    30.13R
#SHEEP RDG 7000 N/A         36  25  64  CALM    30.04R
#WALLOWA SCHOOL N/A         29  28  96  CALM    30.99S



$$



USA.gov is the U.S. government's official web portal to all federal, state and local government web resources and services.